Time,TemperatureF,DewpointF,PressureIn,WindDirection,WindDirectionDegrees,WindSpeedMPH,WindSpeedGustMPH,Humidity,HourlyPrecipIn,Conditions,Clouds,dailyrainin,SoftwareType,DateUTC
2013-01-22 00:00:00,25.5,23.8,29.77,NE,46,1.0,1.0,93,0.00,,,0.00,Wunderground v.1.15,2013-01-22 05:00:00,
2013-01-22 00:02:00,25.6,23.9,29.77,ENE,73,1.0,3.0,93,0.00,,,0.00,Wunderground v.1.15,2013-01-22 05:02:00,
2013-01-22 00:08:00,25.5,24.0,29.77,ENE,70,1.0,3.0,94,0.00,,,0.00,Wunderground v.1.15,2013-01-22 05:08:00,
2013-01-22 00:13:00,25.4,23.9,29.77,ESE,110,1.0,3.0,94,0.00,,,0.00,Wunderground v.1.15,2013-01-22 05:13:00,
2013-01-22 00:18:00,25.4,23.7,29.77,NE,39,0.0,3.0,93,0.00,,,0.00,Wunderground v.1.15,2013-01-22 05:18:00,
2013-01-22 00:20:00,25.4,23.7,29.77,NE,39,0.0,3.0,93,0.00,,,0.00,Wunderground v.1.15,2013-01-22 05:20:00,
2013-01-22 00:25:00,25.3,23.6,29.76,NE,39,0.0,3.0,93,0.00,,,0.00,Wunderground v.1.15,2013-01-22 05:25:00,
2013-01-22 00:31:00,25.2,23.5,29.76,NE,39,0.0,3.0,93,0.00,,,0.00,Wunderground v.1.15,2013-01-22 05:31:00,
2013-01-22 00:37:00,25.2,23.5,29.76,NE,38,0.0,3.0,93,0.00,,,0.00,Wunderground v.1.15,2013-01-22 05:37:00,
2013-01-22 00:43:00,25.2,23.7,29.76,NE,38,0.0,3.0,94,0.00,,,0.00,Wunderground v.1.15,2013-01-22 05:43:00,
2013-01-22 00:49:00,25.2,23.7,29.77,South,186,0.0,3.0,94,0.00,,,0.00,Wunderground v.1.15,2013-01-22 05:49:00,
2013-01-22 00:54:00,25.2,23.7,29.77,SE,143,0.0,3.0,94,0.00,,,0.00,Wunderground v.1.15,2013-01-22 05:54:00,
2013-01-22 01:00:00,25.1,23.6,29.77,WSW,248,0.0,3.0,94,0.00,,,0.00,Wunderground v.1.15,2013-01-22 06:00:00,
2013-01-22 01:05:00,25.1,23.6,29.77,WSW,248,0.0,3.0,94,0.00,,,0.00,Wunderground v.1.15,2013-01-22 06:05:00,
2013-01-22 01:10:00,25.0,23.5,29.76,WSW,248,0.0,3.0,94,0.00,,,0.00,Wunderground v.1.15,2013-01-22 06:10:00,
2013-01-22 01:15:00,25.0,23.5,29.76,WSW,248,0.0,3.0,94,0.00,,,0.00,Wunderground v.1.15,2013-01-22 06:15:00,
2013-01-22 01:20:00,24.9,23.4,29.76,WSW,248,0.0,3.0,94,0.00,,,0.00,Wunderground v.1.15,2013-01-22 06:20:00,
2013-01-22 01:26:00,24.9,23.4,29.77,WSW,249,0.0,3.0,94,0.00,,,0.00,Wunderground v.1.15,2013-01-22 06:26:00,
2013-01-22 01:31:00,24.8,23.3,29.77,WSW,245,0.0,3.0,94,0.00,,,0.00,Wunderground v.1.15,2013-01-22 06:31:00,
2013-01-22 01:36:00,24.8,23.3,29.77,WSW,245,0.0,3.0,94,0.00,,,0.00,Wunderground v.1.15,2013-01-22 06:36:00,
2013-01-22 01:42:00,24.8,23.3,29.77,WSW,243,0.0,3.0,94,0.00,,,0.00,Wunderground v.1.15,2013-01-22 06:42:00,
2013-01-22 01:47:00,24.7,23.2,29.77,WSW,243,0.0,3.0,94,0.00,,,0.00,Wunderground v.1.15,2013-01-22 06:47:00,
2013-01-22 01:53:00,24.6,23.1,29.77,WSW,243,0.0,3.0,94,0.00,,,0.00,Wunderground v.1.15,2013-01-22 06:53:00,
2013-01-22 01:58:00,24.5,23.0,29.76,WSW,243,0.0,3.0,94,0.00,,,0.00,Wunderground v.1.15,2013-01-22 06:58:00,
2013-01-22 02:04:00,24.3,22.8,29.76,WSW,243,0.0,3.0,94,0.00,,,0.00,Wunderground v.1.15,2013-01-22 07:04:00,
2013-01-22 02:09:00,24.1,22.6,29.76,WSW,243,0.0,3.0,94,0.00,,,0.00,Wunderground v.1.15,2013-01-22 07:09:00,
2013-01-22 02:15:00,23.8,22.3,29.77,WSW,243,0.0,3.0,94,0.00,,,0.00,Wunderground v.1.15,2013-01-22 07:15:00,
2013-01-22 02:21:00,23.8,22.3,29.77,WSW,243,0.0,3.0,94,0.00,,,0.00,Wunderground v.1.15,2013-01-22 07:21:00,
2013-01-22 02:26:00,23.6,22.1,29.77,WSW,243,0.0,3.0,94,0.00,,,0.00,Wunderground v.1.15,2013-01-22 07:26:00,
2013-01-22 02:31:00,23.2,21.7,29.77,WSW,243,0.0,3.0,94,0.00,,,0.00,Wunderground v.1.15,2013-01-22 07:31:00,
2013-01-22 02:37:00,22.9,21.4,29.76,WSW,243,0.0,3.0,94,0.00,,,0.00,Wunderground v.1.15,2013-01-22 07:37:00,
2013-01-22 02:42:00,22.8,21.3,29.76,WSW,243,0.0,3.0,94,0.00,,,0.00,Wunderground v.1.15,2013-01-22 07:42:00,
2013-01-22 02:48:00,22.8,21.3,29.76,WSW,243,0.0,3.0,94,0.00,,,0.00,Wunderground v.1.15,2013-01-22 07:48:00,
2013-01-22 02:53:00,22.9,21.7,29.77,SW,231,0.0,3.0,95,0.00,,,0.00,Wunderground v.1.15,2013-01-22 07:53:00,
2013-01-22 02:59:00,23.2,22.0,29.77,WSW,255,0.0,3.0,95,0.00,,,0.00,Wunderground v.1.15,2013-01-22 07:59:00,
2013-01-22 03:05:00,23.6,22.4,29.77,WSW,255,0.0,3.0,95,0.00,,,0.00,Wunderground v.1.15,2013-01-22 08:05:00,
2013-01-22 03:10:00,23.7,22.5,29.77,WSW,240,0.0,3.0,95,0.00,,,0.00,Wunderground v.1.15,2013-01-22 08:10:00,
2013-01-22 03:16:00,23.8,22.6,29.77,West,270,0.0,3.0,95,0.00,,,0.00,Wunderground v.1.15,2013-01-22 08:16:00,
2013-01-22 03:22:00,23.9,22.7,29.77,NE,47,0.0,3.0,95,0.00,,,0.00,Wunderground v.1.15,2013-01-22 08:22:00,
2013-01-22 03:28:00,23.8,22.3,29.77,NE,47,0.0,3.0,94,0.00,,,0.00,Wunderground v.1.15,2013-01-22 08:28:00,
2013-01-22 03:33:00,23.8,22.3,29.77,NE,44,0.0,3.0,94,0.00,,,0.00,Wunderground v.1.15,2013-01-22 08:33:00,
2013-01-22 03:38:00,23.8,22.3,29.76,North,4,0.0,3.0,94,0.00,,,0.00,Wunderground v.1.15,2013-01-22 08:38:00,
2013-01-22 03:44:00,23.8,22.3,29.76,West,278,0.0,3.0,94,0.00,,,0.00,Wunderground v.1.15,2013-01-22 08:44:00,
2013-01-22 03:50:00,23.8,22.3,29.76,NW,319,0.0,3.0,94,0.00,,,0.00,Wunderground v.1.15,2013-01-22 08:50:00,
2013-01-22 03:55:00,23.9,22.4,29.77,NNW,335,0.0,3.0,94,0.00,,,0.00,Wunderground v.1.15,2013-01-22 08:55:00,
2013-01-22 04:00:00,23.9,22.4,29.77,SE,130,0.0,3.0,94,0.00,,,0.00,Wunderground v.1.15,2013-01-22 09:00:00,
2013-01-22 04:05:00,23.9,22.4,29.77,SW,229,0.0,3.0,94,0.00,,,0.00,Wunderground v.1.15,2013-01-22 09:05:00,
2013-01-22 04:11:00,23.8,22.3,29.77,North,356,0.0,3.0,94,0.00,,,0.00,Wunderground v.1.15,2013-01-22 09:11:00,
2013-01-22 04:17:00,23.6,21.9,29.77,NW,319,0.0,3.0,93,0.00,,,0.00,Wunderground v.1.15,2013-01-22 09:17:00,
2013-01-22 04:23:00,23.5,21.8,29.77,West,259,0.0,3.0,93,0.00,,,0.00,Wunderground v.1.15,2013-01-22 09:23:00,
2013-01-22 04:28:00,23.5,21.8,29.77,WNW,284,0.0,3.0,93,0.00,,,0.00,Wunderground v.1.15,2013-01-22 09:28:00,
2013-01-22 04:34:00,23.5,21.8,29.77,NNE,23,1.0,3.0,93,0.00,,,0.00,Wunderground v.1.15,2013-01-22 09:34:00,
2013-01-22 04:39:00,23.6,21.9,29.77,NNW,333,2.0,4.0,93,0.00,,,0.00,Wunderground v.1.15,2013-01-22 09:39:00,
2013-01-22 04:45:00,23.7,21.7,29.77,WNW,285,1.0,3.0,92,0.00,,,0.00,Wunderground v.1.15,2013-01-22 09:45:00,
2013-01-22 04:50:00,23.5,21.3,29.77,NNE,33,2.0,3.0,91,0.00,,,0.00,Wunderground v.1.15,2013-01-22 09:50:00,
2013-01-22 04:56:00,23.3,20.8,29.78,WNW,290,2.0,7.0,90,0.00,,,0.00,Wunderground v.1.15,2013-01-22 09:56:00,
2013-01-22 05:01:00,23.3,20.8,29.78,NE,49,3.0,3.0,90,0.00,,,0.00,Wunderground v.1.15,2013-01-22 10:01:00,
2013-01-22 05:06:00,23.3,20.8,29.78,NW,316,2.0,3.0,90,0.00,,,0.00,Wunderground v.1.15,2013-01-22 10:06:00,
2013-01-22 05:12:00,23.2,20.4,29.78,WNW,297,2.0,3.0,89,0.00,,,0.00,Wunderground v.1.15,2013-01-22 10:12:00,
2013-01-22 05:18:00,23.1,20.3,29.79,WSW,250,2.0,3.0,89,0.00,,,0.00,Wunderground v.1.15,2013-01-22 10:18:00,
2013-01-22 05:24:00,23.0,20.2,29.79,WNW,295,1.0,3.0,89,0.00,,,0.00,Wunderground v.1.15,2013-01-22 10:24:00,
2013-01-22 05:29:00,22.8,19.8,29.80,NNW,345,2.0,4.0,88,0.00,,,0.00,Wunderground v.1.15,2013-01-22 10:29:00,
2013-01-22 05:35:00,22.5,19.2,29.80,WSW,238,2.0,3.0,87,0.00,,,0.00,Wunderground v.1.15,2013-01-22 10:35:00,
2013-01-22 05:40:00,22.2,18.9,29.80,North,354,2.0,3.0,87,0.00,,,0.00,Wunderground v.1.15,2013-01-22 10:40:00,
2013-01-22 05:46:00,22.0,18.5,29.80,West,275,2.0,3.0,86,0.00,,,0.00,Wunderground v.1.15,2013-01-22 10:46:00,
2013-01-22 05:52:00,21.9,18.4,29.81,NNW,340,2.0,6.0,86,0.00,,,0.00,Wunderground v.1.15,2013-01-22 10:52:00,
2013-01-22 05:57:00,21.7,18.2,29.81,WNW,301,2.0,6.0,86,0.00,,,0.00,Wunderground v.1.15,2013-01-22 10:57:00,
2013-01-22 06:03:00,21.5,17.7,29.82,WSW,240,2.0,8.0,85,0.00,,,0.00,Wunderground v.1.15,2013-01-22 11:03:00,
2013-01-22 06:08:00,21.4,17.3,29.82,West,264,3.0,8.0,84,0.00,,,0.00,Wunderground v.1.15,2013-01-22 11:08:00,
2013-01-22 06:14:00,21.3,17.2,29.83,NNE,32,3.0,5.0,84,0.00,,,0.00,Wunderground v.1.15,2013-01-22 11:14:00,
2013-01-22 06:20:00,21.1,16.7,29.83,NW,314,3.0,3.0,83,0.00,,,0.00,Wunderground v.1.15,2013-01-22 11:20:00,
2013-01-22 06:25:00,20.8,16.5,29.84,WNW,285,4.0,4.0,83,0.00,,,0.00,Wunderground v.1.15,2013-01-22 11:25:00,
2013-01-22 06:31:00,20.6,16.3,29.84,WNW,293,3.0,4.0,83,0.00,,,0.00,Wunderground v.1.15,2013-01-22 11:31:00,
2013-01-22 06:37:00,20.4,16.1,29.84,North,349,2.0,7.0,83,0.00,,,0.00,Wunderground v.1.15,2013-01-22 11:37:00,
2013-01-22 06:43:00,20.2,15.6,29.84,North,354,2.0,3.0,82,0.00,,,0.00,Wunderground v.1.15,2013-01-22 11:43:00,
2013-01-22 06:49:00,20.1,15.2,29.85,North,356,2.0,5.0,81,0.00,,,0.00,Wunderground v.1.15,2013-01-22 11:49:00,
2013-01-22 06:54:00,19.9,15.0,29.85,NNE,15,2.0,7.0,81,0.00,,,0.00,Wunderground v.1.15,2013-01-22 11:54:00,
2013-01-22 07:00:00,19.8,14.9,29.85,South,181,2.0,2.0,81,0.00,,,0.00,Wunderground v.1.15,2013-01-22 12:00:00,
2013-01-22 07:05:00,19.7,14.5,29.85,West,266,2.0,6.0,80,0.00,,,0.00,Wunderground v.1.15,2013-01-22 12:05:00,
2013-01-22 07:11:00,19.6,13.9,29.85,West,277,3.0,3.0,78,0.00,,,0.00,Wunderground v.1.15,2013-01-22 12:11:00,
2013-01-22 07:17:00,19.5,13.8,29.85,North,9,3.0,4.0,78,0.00,,,0.00,Wunderground v.1.15,2013-01-22 12:17:00,
2013-01-22 07:23:00,19.3,13.6,29.86,West,280,3.0,3.0,78,0.00,,,0.00,Wunderground v.1.15,2013-01-22 12:23:00,
2013-01-22 07:29:00,19.1,13.4,29.86,WNW,293,3.0,6.0,78,0.00,,,0.00,Wunderground v.1.15,2013-01-22 12:29:00,
2013-01-22 07:34:00,19.1,13.4,29.86,West,277,3.0,7.0,78,0.00,,,0.00,Wunderground v.1.15,2013-01-22 12:34:00,
2013-01-22 07:40:00,19.0,13.0,29.86,WSW,252,3.0,3.0,77,0.00,,,0.00,Wunderground v.1.15,2013-01-22 12:40:00,
2013-01-22 07:45:00,19.0,13.0,29.87,WSW,242,2.0,3.0,77,0.00,,,0.00,Wunderground v.1.15,2013-01-22 12:45:00,
2013-01-22 07:50:00,19.1,13.1,29.87,WNW,294,2.0,2.0,77,0.00,,,0.00,Wunderground v.1.15,2013-01-22 12:50:00,
2013-01-22 07:57:00,19.3,13.0,29.87,North,349,2.0,9.0,76,0.00,,,0.00,Wunderground v.1.15,2013-01-22 12:57:00,
2013-01-22 08:03:00,19.4,12.5,29.87,NNW,348,3.0,6.0,74,0.00,,,0.00,Wunderground v.1.15,2013-01-22 13:03:00,
2013-01-22 08:08:00,19.9,12.3,29.87,WSW,249,3.0,6.0,72,0.00,,,0.00,Wunderground v.1.15,2013-01-22 13:08:00,
2013-01-22 08:13:00,20.2,12.0,29.88,West,262,3.0,5.0,70,0.00,,,0.00,Wunderground v.1.15,2013-01-22 13:13:00,
2013-01-22 08:19:00,20.6,12.0,29.88,WNW,284,3.0,7.0,69,0.00,,,0.00,Wunderground v.1.15,2013-01-22 13:19:00,
2013-01-22 08:25:00,20.9,11.3,29.89,WSW,252,3.0,6.0,66,0.00,,,0.00,Wunderground v.1.15,2013-01-22 13:25:00,
2013-01-22 08:30:00,21.0,10.7,29.89,West,269,4.0,7.0,64,0.00,,,0.00,Wunderground v.1.15,2013-01-22 13:30:00,
2013-01-22 08:35:00,21.2,10.2,29.89,WSW,242,4.0,7.0,62,0.00,,,0.00,Wunderground v.1.15,2013-01-22 13:35:00,
2013-01-22 08:41:00,21.4,10.0,29.89,SW,222,4.0,5.0,61,0.00,,,0.00,Wunderground v.1.15,2013-01-22 13:41:00,
2013-01-22 08:46:00,21.4,9.3,29.90,NW,324,4.0,5.0,59,0.00,,,0.00,Wunderground v.1.15,2013-01-22 13:46:00,
2013-01-22 08:52:00,21.6,8.7,29.90,West,263,4.0,6.0,57,0.00,,,0.00,Wunderground v.1.15,2013-01-22 13:52:00,
2013-01-22 08:58:00,22.0,8.3,29.90,NW,307,4.0,7.0,55,0.00,,,0.00,Wunderground v.1.15,2013-01-22 13:58:00,
2013-01-22 09:03:00,22.0,8.7,29.90,SW,231,4.0,5.0,56,0.00,,,0.00,Wunderground v.1.15,2013-01-22 14:03:00,
2013-01-22 09:08:00,21.9,7.4,29.91,West,277,5.0,9.0,53,0.00,,,0.00,Wunderground v.1.15,2013-01-22 14:08:00,
2013-01-22 09:14:00,21.8,6.4,29.91,West,277,6.0,11.0,51,0.00,,,0.00,Wunderground v.1.15,2013-01-22 14:14:00,
2013-01-22 09:19:00,21.9,5.6,29.91,NW,319,6.0,11.0,49,0.00,,,0.00,Wunderground v.1.15,2013-01-22 14:19:00,
2013-01-22 09:25:00,22.0,5.3,29.91,East,92,5.0,7.0,48,0.00,,,0.00,Wunderground v.1.15,2013-01-22 14:25:00,
2013-01-22 09:30:00,22.2,4.5,29.91,NE,46,5.0,6.0,46,0.00,,,0.00,Wunderground v.1.15,2013-01-22 14:30:00,
2013-01-22 09:35:00,22.3,3.7,29.91,NNW,338,6.0,8.0,44,0.00,,,0.00,Wunderground v.1.15,2013-01-22 14:35:00,
2013-01-22 09:41:00,22.4,3.7,29.91,SSE,156,6.0,7.0,44,0.00,,,0.00,Wunderground v.1.15,2013-01-22 14:41:00,
2013-01-22 09:47:00,22.5,3.3,29.91,West,273,6.0,11.0,43,0.00,,,0.00,Wunderground v.1.15,2013-01-22 14:47:00,
2013-01-22 09:53:00,23.0,3.8,29.91,WNW,283,4.0,6.0,43,0.00,,,0.00,Wunderground v.1.15,2013-01-22 14:53:00,
2013-01-22 09:59:00,23.2,3.5,29.91,WSW,257,4.0,12.0,42,0.00,,,0.00,Wunderground v.1.15,2013-01-22 14:59:00,
2013-01-22 10:05:00,23.2,2.9,29.91,NNW,335,6.0,9.0,41,0.00,,,0.00,Wunderground v.1.15,2013-01-22 15:05:00,
2013-01-22 10:11:00,23.2,2.4,29.91,NW,307,6.0,9.0,40,0.00,,,0.00,Wunderground v.1.15,2013-01-22 15:11:00,
2013-01-22 10:17:00,23.4,2.6,29.92,WSW,237,6.0,12.0,40,0.00,,,0.00,Wunderground v.1.15,2013-01-22 15:17:00,
2013-01-22 10:23:00,23.4,2.0,29.91,NNW,343,7.0,8.0,39,0.00,,,0.00,Wunderground v.1.15,2013-01-22 15:23:00,
2013-01-22 10:28:00,23.3,0.8,29.92,WNW,288,6.0,9.0,37,0.00,,,0.00,Wunderground v.1.15,2013-01-22 15:28:00,
2013-01-22 10:34:00,23.4,0.3,29.92,North,358,7.0,11.0,36,0.00,,,0.00,Wunderground v.1.15,2013-01-22 15:34:00,
2013-01-22 10:39:00,23.6,1.1,29.91,WSW,240,6.0,11.0,37,0.00,,,0.00,Wunderground v.1.15,2013-01-22 15:39:00,
2013-01-22 10:45:00,24.0,0.3,29.91,North,354,4.0,12.0,35,0.00,,,0.00,Wunderground v.1.15,2013-01-22 15:45:00,
2013-01-22 10:50:00,24.3,1.1,29.91,WNW,291,4.0,8.0,36,0.00,,,0.00,Wunderground v.1.15,2013-01-22 15:50:00,
2013-01-22 10:56:00,24.6,1.4,29.91,ENE,76,5.0,11.0,36,0.00,,,0.00,Wunderground v.1.15,2013-01-22 15:56:00,
2013-01-22 11:02:00,24.8,1.6,29.91,WSW,252,4.0,11.0,36,0.00,,,0.00,Wunderground v.1.15,2013-01-22 16:02:00,
2013-01-22 11:08:00,25.2,1.9,29.90,WNW,284,4.0,11.0,36,0.00,,,0.00,Wunderground v.1.15,2013-01-22 16:08:00,
2013-01-22 11:13:00,24.8,1.0,29.91,West,259,6.0,11.0,35,0.00,,,0.00,Wunderground v.1.15,2013-01-22 16:13:00,
2013-01-22 11:19:00,24.4,-0.6,29.91,WNW,291,7.0,11.0,33,0.00,,,0.00,Wunderground v.1.15,2013-01-22 16:19:00,
2013-01-22 11:25:00,24.3,-0.1,29.91,SSW,211,7.0,11.0,34,0.00,,,0.00,Wunderground v.1.15,2013-01-22 16:25:00,
2013-01-22 11:30:00,24.3,-0.7,29.90,WNW,293,7.0,10.0,33,0.00,,,0.00,Wunderground v.1.15,2013-01-22 16:30:00,
2013-01-22 11:36:00,24.2,-0.8,29.90,WSW,246,7.0,10.0,33,0.00,,,0.00,Wunderground v.1.15,2013-01-22 16:36:00,
2013-01-22 11:41:00,24.4,0.0,29.90,WSW,257,7.0,7.0,34,0.00,,,0.00,Wunderground v.1.15,2013-01-22 16:41:00,
2013-01-22 11:47:00,24.7,0.3,29.90,SW,215,6.0,10.0,34,0.00,,,0.00,Wunderground v.1.15,2013-01-22 16:47:00,
2013-01-22 11:52:00,24.9,-0.2,29.90,WNW,301,6.0,7.0,33,0.00,,,0.00,Wunderground v.1.15,2013-01-22 16:52:00,
2013-01-22 11:58:00,25.2,-0.6,29.90,West,259,5.0,12.0,32,0.00,,,0.00,Wunderground v.1.15,2013-01-22 16:58:00,
2013-01-22 12:03:00,25.5,-0.3,29.90,East,83,4.0,16.0,32,0.00,,,0.00,Wunderground v.1.15,2013-01-22 17:03:00,
2013-01-22 12:09:00,25.4,-1.1,29.90,SW,232,5.0,16.0,31,0.00,,,0.00,Wunderground v.1.15,2013-01-22 17:09:00,
2013-01-22 12:14:00,25.0,-2.1,29.90,North,1,5.0,16.0,30,0.00,,,0.00,Wunderground v.1.15,2013-01-22 17:14:00,
2013-01-22 12:20:00,25.4,-0.4,29.90,WNW,284,4.0,16.0,32,0.00,,,0.00,Wunderground v.1.15,2013-01-22 17:20:00,
2013-01-22 12:25:00,25.4,-0.4,29.90,West,259,4.0,16.0,32,0.00,,,0.00,Wunderground v.1.15,2013-01-22 17:25:00,
2013-01-22 12:30:00,25.7,0.5,29.90,NW,319,5.0,5.0,33,0.00,,,0.00,Wunderground v.1.15,2013-01-22 17:30:00,
2013-01-22 12:36:00,25.5,-1.0,29.90,SSW,211,5.0,16.0,31,0.00,,,0.00,Wunderground v.1.15,2013-01-22 17:36:00,
2013-01-22 12:42:00,25.3,-0.5,29.89,West,267,5.0,16.0,32,0.00,,,0.00,Wunderground v.1.15,2013-01-22 17:42:00,
2013-01-22 12:48:00,25.0,-1.4,29.89,West,281,5.0,16.0,31,0.00,,,0.00,Wunderground v.1.15,2013-01-22 17:48:00,
2013-01-22 12:54:00,25.2,-1.3,29.89,SW,236,5.0,16.0,31,0.00,,,0.00,Wunderground v.1.15,2013-01-22 17:54:00,
2013-01-22 13:00:00,25.1,-1.3,29.89,WNW,290,6.0,6.0,31,0.00,,,0.00,Wunderground v.1.15,2013-01-22 18:00:00,
2013-01-22 13:06:00,25.1,-1.3,29.89,WSW,246,5.0,16.0,31,0.00,,,0.00,Wunderground v.1.15,2013-01-22 18:06:00,
2013-01-22 13:32:00,24.2,-2.1,29.89,North,6,5.0,5.0,31,0.00,,,0.00,Wunderground v.1.15,2013-01-22 18:32:00,
2013-01-22 13:38:00,24.4,-1.3,29.89,WNW,294,4.0,7.0,32,0.00,,,0.00,Wunderground v.1.15,2013-01-22 18:38:00,
2013-01-22 13:43:00,24.7,-1.7,29.89,West,259,5.0,8.0,31,0.00,,,0.00,Wunderground v.1.15,2013-01-22 18:43:00,
2013-01-22 13:49:00,25.0,-0.8,29.89,NE,41,5.0,11.0,32,0.00,,,0.00,Wunderground v.1.15,2013-01-22 18:49:00,
2013-01-22 13:55:00,25.3,-1.9,29.90,ENE,57,5.0,7.0,30,0.00,,,0.00,Wunderground v.1.15,2013-01-22 18:55:00,
2013-01-22 14:00:00,25.1,-0.7,29.90,NNW,335,4.0,4.0,32,0.00,,,0.00,Wunderground v.1.15,2013-01-22 19:00:00,
2013-01-22 14:07:00,25.3,-1.2,29.90,WSW,255,4.0,7.0,31,0.00,,,0.00,Wunderground v.1.15,2013-01-22 19:07:00,
2013-01-22 14:13:00,25.1,-0.7,29.91,East,83,5.0,6.0,32,0.00,,,0.00,Wunderground v.1.15,2013-01-22 19:13:00,
2013-01-22 14:18:00,24.9,0.4,29.91,NW,326,5.0,9.0,34,0.00,,,0.00,Wunderground v.1.15,2013-01-22 19:18:00,
2013-01-22 14:24:00,24.8,0.4,29.91,East,89,5.0,6.0,34,0.00,,,0.00,Wunderground v.1.15,2013-01-22 19:24:00,
2013-01-22 14:29:00,25.1,-0.7,29.91,West,277,3.0,9.0,32,0.00,,,0.00,Wunderground v.1.15,2013-01-22 19:29:00,
2013-01-22 14:35:00,25.0,-0.8,29.91,SW,231,4.0,13.0,32,0.00,,,0.00,Wunderground v.1.15,2013-01-22 19:35:00,
2013-01-22 14:40:00,25.0,-1.4,29.91,NNW,330,5.0,13.0,31,0.00,,,0.00,Wunderground v.1.15,2013-01-22 19:40:00,
2013-01-22 14:45:00,24.9,-0.8,29.91,WNW,287,5.0,13.0,32,0.00,,,0.00,Wunderground v.1.15,2013-01-22 19:45:00,
2013-01-22 14:50:00,25.0,-0.8,29.91,NNE,31,5.0,5.0,32,0.00,,,0.00,Wunderground v.1.15,2013-01-22 19:50:00,
2013-01-22 14:57:00,25.2,-1.3,29.91,NW,304,4.0,13.0,31,0.00,,,0.00,Wunderground v.1.15,2013-01-22 19:57:00,
2013-01-22 15:03:00,24.8,-1.6,29.91,North,11,4.0,13.0,31,0.00,,,0.00,Wunderground v.1.15,2013-01-22 20:03:00,
2013-01-22 15:08:00,23.7,-2.6,29.91,WSW,245,5.0,13.0,31,0.00,,,0.00,Wunderground v.1.15,2013-01-22 20:08:00,
2013-01-22 15:14:00,23.9,-3.1,29.91,WNW,285,5.0,13.0,30,0.00,,,0.00,Wunderground v.1.15,2013-01-22 20:14:00,
2013-01-22 15:20:00,24.0,-3.0,29.91,SW,236,6.0,6.0,30,0.00,,,0.00,Wunderground v.1.15,2013-01-22 20:20:00,
2013-01-22 15:26:00,24.2,-2.8,29.91,West,277,5.0,13.0,30,0.00,,,0.00,Wunderground v.1.15,2013-01-22 20:26:00,
2013-01-22 15:31:00,24.1,-2.2,29.91,WSW,242,4.0,13.0,31,0.00,,,0.00,Wunderground v.1.15,2013-01-22 20:31:00,
2013-01-22 15:37:00,24.0,-2.3,29.92,WSW,257,4.0,13.0,31,0.00,,,0.00,Wunderground v.1.15,2013-01-22 20:37:00,
2013-01-22 15:43:00,23.9,-1.7,29.92,WNW,303,5.0,13.0,32,0.00,,,0.00,Wunderground v.1.15,2013-01-22 20:43:00,
2013-01-22 15:48:00,23.6,-1.3,29.92,West,266,4.0,13.0,33,0.00,,,0.00,Wunderground v.1.15,2013-01-22 20:48:00,
2013-01-22 15:53:00,23.6,-2.0,29.92,WSW,243,4.0,13.0,32,0.00,,,0.00,Wunderground v.1.15,2013-01-22 20:53:00,
2013-01-22 15:59:00,23.3,-1.6,29.92,NNE,13,3.0,13.0,33,0.00,,,0.00,Wunderground v.1.15,2013-01-22 20:59:00,
2013-01-22 16:04:00,23.2,-1.7,29.93,NNE,20,3.0,13.0,33,0.00,,,0.00,Wunderground v.1.15,2013-01-22 21:04:00,
2013-01-22 16:10:00,22.7,-2.1,29.93,ENE,68,3.0,3.0,33,0.00,,,0.00,Wunderground v.1.15,2013-01-22 21:10:00,
2013-01-22 16:15:00,22.3,-3.1,29.94,NNE,15,3.0,13.0,32,0.00,,,0.00,Wunderground v.1.15,2013-01-22 21:15:00,
2013-01-22 16:20:00,22.0,-2.8,29.94,WNW,295,3.0,13.0,33,0.00,,,0.00,Wunderground v.1.15,2013-01-22 21:20:00,
2013-01-22 16:26:00,21.9,-2.2,29.94,West,270,3.0,13.0,34,0.00,,,0.00,Wunderground v.1.15,2013-01-22 21:26:00,
2013-01-22 16:31:00,21.7,-2.4,29.94,WNW,284,2.0,13.0,34,0.00,,,0.00,Wunderground v.1.15,2013-01-22 21:31:00,
2013-01-22 16:32:00,21.7,-2.4,29.94,NNW,336,2.0,13.0,34,0.00,,,0.00,Wunderground v.1.15,2013-01-22 21:32:00,
2013-01-22 16:37:00,21.1,-2.3,29.95,West,271,2.0,13.0,35,0.00,,,0.00,Wunderground v.1.15,2013-01-22 21:37:00,
2013-01-22 16:42:00,20.7,-2.7,29.95,WNW,290,2.0,13.0,35,0.00,,,0.00,Wunderground v.1.15,2013-01-22 21:42:00,
2013-01-22 16:48:00,20.2,-2.5,29.95,NE,39,1.0,13.0,36,0.00,,,0.00,Wunderground v.1.15,2013-01-22 21:48:00,
2013-01-22 16:54:00,19.9,-2.2,29.96,North,351,2.0,13.0,37,0.00,,,0.00,Wunderground v.1.15,2013-01-22 21:54:00,
2013-01-22 17:00:00,19.7,-1.8,29.96,ENE,64,3.0,3.0,38,0.00,,,0.00,Wunderground v.1.15,2013-01-22 22:00:00,
2013-01-22 17:05:00,19.7,-2.4,29.97,NW,326,3.0,13.0,37,0.00,,,0.00,Wunderground v.1.15,2013-01-22 22:05:00,
2013-01-22 17:11:00,19.6,-2.5,29.97,SSW,209,3.0,13.0,37,0.00,,,0.00,Wunderground v.1.15,2013-01-22 22:11:00,
2013-01-22 17:17:00,19.4,-2.7,29.98,NNE,32,3.0,13.0,37,0.00,,,0.00,Wunderground v.1.15,2013-01-22 22:17:00,
2013-01-22 17:23:00,19.2,-2.3,29.98,NNE,18,3.0,13.0,38,0.00,,,0.00,Wunderground v.1.15,2013-01-22 22:23:00,
2013-01-22 17:29:00,19.0,-2.5,29.99,NW,305,2.0,13.0,38,0.00,,,0.00,Wunderground v.1.15,2013-01-22 22:29:00,
2013-01-22 17:35:00,18.7,-2.2,29.99,NNW,331,1.0,13.0,39,0.00,,,0.00,Wunderground v.1.15,2013-01-22 22:35:00,
2013-01-22 17:40:00,18.5,-1.3,30.00,WSW,243,1.0,1.0,41,0.00,,,0.00,Wunderground v.1.15,2013-01-22 22:40:00,
2013-01-22 17:46:00,18.4,-1.4,30.00,East,96,2.0,13.0,41,0.00,,,0.00,Wunderground v.1.15,2013-01-22 22:46:00,
2013-01-22 17:51:00,18.2,-1.1,30.00,West,271,2.0,13.0,42,0.00,,,0.00,Wunderground v.1.15,2013-01-22 22:51:00,
2013-01-22 17:57:00,18.0,-1.3,30.01,North,360,1.0,13.0,42,0.00,,,0.00,Wunderground v.1.15,2013-01-22 22:57:00,
2013-01-22 18:02:00,17.7,-1.0,30.01,NNW,333,1.0,13.0,43,0.00,,,0.00,Wunderground v.1.15,2013-01-22 23:02:00,
2013-01-22 18:07:00,17.6,-0.6,30.01,NNW,345,1.0,13.0,44,0.00,,,0.00,Wunderground v.1.15,2013-01-22 23:07:00,
2013-01-22 18:13:00,17.3,-0.9,30.01,WSW,242,1.0,13.0,44,0.00,,,0.00,Wunderground v.1.15,2013-01-22 23:13:00,
2013-01-22 18:19:00,17.2,-0.5,30.02,North,6,1.0,13.0,45,0.00,,,0.00,Wunderground v.1.15,2013-01-22 23:19:00,
2013-01-22 18:25:00,17.0,-0.7,30.02,NW,309,1.0,13.0,45,0.00,,,0.00,Wunderground v.1.15,2013-01-22 23:25:00,
2013-01-22 18:30:00,16.6,-0.6,30.02,NE,46,1.0,13.0,46,0.00,,,0.00,Wunderground v.1.15,2013-01-22 23:30:00,
2013-01-22 18:36:00,16.0,-0.7,30.03,NE,37,0.0,13.0,47,0.00,,,0.00,Wunderground v.1.15,2013-01-22 23:36:00,
2013-01-22 18:42:00,16.1,-0.6,30.03,North,354,1.0,13.0,47,0.00,,,0.00,Wunderground v.1.15,2013-01-22 23:42:00,
2013-01-22 18:47:00,16.2,-0.5,30.03,North,360,1.0,13.0,47,0.00,,,0.00,Wunderground v.1.15,2013-01-22 23:47:00,
2013-01-22 18:52:00,16.2,-0.5,30.03,North,359,1.0,13.0,47,0.00,,,0.00,Wunderground v.1.15,2013-01-22 23:52:00,
2013-01-22 18:57:00,16.0,-0.7,30.04,WNW,285,1.0,13.0,47,0.00,,,0.00,Wunderground v.1.15,2013-01-22 23:57:00,
2013-01-22 19:02:00,15.8,-0.9,30.04,NE,39,1.0,13.0,47,0.00,,,0.00,Wunderground v.1.15,2013-01-23 00:02:00,
2013-01-22 19:08:00,15.7,-1.0,30.04,NNE,30,1.0,13.0,47,0.00,,,0.00,Wunderground v.1.15,2013-01-23 00:08:00,
2013-01-22 19:13:00,15.5,-1.2,30.04,NNE,32,1.0,13.0,47,0.00,,,0.00,Wunderground v.1.15,2013-01-23 00:13:00,
2013-01-22 19:19:00,15.1,-1.1,30.04,NE,36,0.0,13.0,48,0.00,,,0.00,Wunderground v.1.15,2013-01-23 00:19:00,
2013-01-22 19:24:00,15.1,-1.1,30.04,NE,34,0.0,13.0,48,0.00,,,0.00,Wunderground v.1.15,2013-01-23 00:24:00,
2013-01-22 19:29:00,15.2,-0.6,30.05,NNE,25,1.0,13.0,49,0.00,,,0.00,Wunderground v.1.15,2013-01-23 00:29:00,
2013-01-22 19:35:00,14.8,-0.9,30.05,NNE,26,0.0,13.0,49,0.00,,,0.00,Wunderground v.1.15,2013-01-23 00:35:00,
2013-01-22 19:42:00,14.6,-0.7,30.05,NNW,342,1.0,13.0,50,0.00,,,0.00,Wunderground v.1.15,2013-01-23 00:42:00,
2013-01-22 19:47:00,14.9,-0.4,30.05,NW,305,1.0,13.0,50,0.00,,,0.00,Wunderground v.1.15,2013-01-23 00:47:00,
2013-01-22 19:52:00,14.6,-0.7,30.05,NW,316,1.0,13.0,50,0.00,,,0.00,Wunderground v.1.15,2013-01-23 00:52:00,
2013-01-22 19:58:00,14.1,-0.3,30.05,NW,319,0.0,13.0,52,0.00,,,0.00,Wunderground v.1.15,2013-01-23 00:58:00,
2013-01-22 20:04:00,13.4,-0.6,30.05,NW,319,0.0,13.0,53,0.00,,,0.00,Wunderground v.1.15,2013-01-23 01:04:00,
2013-01-22 20:09:00,12.8,-0.3,30.06,NW,319,0.0,13.0,55,0.00,,,0.00,Wunderground v.1.15,2013-01-23 01:09:00,
2013-01-22 20:15:00,12.4,-0.3,30.06,NW,319,0.0,13.0,56,0.00,,,0.00,Wunderground v.1.15,2013-01-23 01:15:00,
2013-01-22 20:21:00,12.1,-0.2,30.06,WSW,252,0.0,13.0,57,0.00,,,0.00,Wunderground v.1.15,2013-01-23 01:21:00,
2013-01-22 20:26:00,13.0,0.2,30.06,West,275,1.0,13.0,56,0.00,,,0.00,Wunderground v.1.15,2013-01-23 01:26:00,
2013-01-22 20:32:00,13.2,0.0,30.07,North,356,1.0,13.0,55,0.00,,,0.00,Wunderground v.1.15,2013-01-23 01:32:00,
2013-01-22 20:37:00,12.9,-0.3,30.07,North,356,0.0,13.0,55,0.00,,,0.00,Wunderground v.1.15,2013-01-23 01:37:00,
2013-01-22 20:43:00,12.3,-0.8,30.06,North,356,0.0,13.0,55,0.00,,,0.00,Wunderground v.1.15,2013-01-23 01:43:00,
2013-01-22 20:48:00,11.8,-0.2,30.07,North,357,0.0,13.0,58,0.00,,,0.00,Wunderground v.1.15,2013-01-23 01:48:00,
2013-01-22 20:53:00,11.5,-0.1,30.07,North,356,0.0,13.0,59,0.00,,,0.00,Wunderground v.1.15,2013-01-23 01:53:00,
2013-01-22 20:58:00,10.9,0.1,30.07,North,357,0.0,13.0,61,0.00,,,0.00,Wunderground v.1.15,2013-01-23 01:58:00,
2013-01-22 21:03:00,10.4,-0.1,30.07,North,356,0.0,13.0,62,0.00,,,0.00,Wunderground v.1.15,2013-01-23 02:03:00,
2013-01-22 21:09:00,10.0,0.2,30.07,North,356,0.0,13.0,64,0.00,,,0.00,Wunderground v.1.15,2013-01-23 02:09:00,
2013-01-22 21:14:00,9.4,0.0,30.08,North,356,0.0,13.0,65,0.00,,,0.00,Wunderground v.1.15,2013-01-23 02:14:00,
2013-01-22 21:19:00,9.1,0.4,30.08,North,356,0.0,13.0,67,0.00,,,0.00,Wunderground v.1.15,2013-01-23 02:19:00,
2013-01-22 21:24:00,9.1,0.4,30.08,North,357,0.0,13.0,67,0.00,,,0.00,Wunderground v.1.15,2013-01-23 02:24:00,
2013-01-22 21:30:00,9.1,0.7,30.08,North,357,0.0,13.0,68,0.00,,,0.00,Wunderground v.1.15,2013-01-23 02:30:00,
2013-01-22 21:35:00,9.1,0.7,30.09,North,356,0.0,13.0,68,0.00,,,0.00,Wunderground v.1.15,2013-01-23 02:35:00,
2013-01-22 21:42:00,9.3,1.2,30.09,NNW,343,0.0,13.0,69,0.00,,,0.00,Wunderground v.1.15,2013-01-23 02:42:00,
2013-01-22 21:48:00,9.5,1.4,30.09,NNW,340,0.0,13.0,69,0.00,,,0.00,Wunderground v.1.15,2013-01-23 02:48:00,
2013-01-22 21:54:00,9.6,1.5,30.09,NNW,340,0.0,13.0,69,0.00,,,0.00,Wunderground v.1.15,2013-01-23 02:54:00,
2013-01-22 22:00:00,9.6,1.5,30.09,NNW,340,0.0,13.0,69,0.00,,,0.00,Wunderground v.1.15,2013-01-23 03:00:00,
2013-01-22 22:05:00,9.5,1.4,30.09,NNW,340,0.0,13.0,69,0.00,,,0.00,Wunderground v.1.15,2013-01-23 03:05:00,
2013-01-22 22:10:00,9.4,1.3,30.09,NNW,340,0.0,13.0,69,0.00,,,0.00,Wunderground v.1.15,2013-01-23 03:10:00,
2013-01-22 22:15:00,9.4,1.6,30.09,NNW,340,0.0,13.0,70,0.00,,,0.00,Wunderground v.1.15,2013-01-23 03:15:00,
2013-01-22 22:22:00,9.6,2.1,30.09,NW,319,0.0,13.0,71,0.00,,,0.00,Wunderground v.1.15,2013-01-23 03:22:00,
2013-01-22 22:28:00,10.3,2.1,30.10,NE,41,1.0,13.0,69,0.00,,,0.00,Wunderground v.1.15,2013-01-23 03:28:00,
2013-01-22 22:36:00,11.4,1.6,30.10,NNE,13,1.0,1.0,64,0.00,,,0.00,Wunderground v.1.15,2013-01-23 03:36:00,
2013-01-22 22:42:00,11.7,1.2,30.10,SSE,154,1.0,2.0,62,0.00,,,0.00,Wunderground v.1.15,2013-01-23 03:42:00,
2013-01-22 22:48:00,12.0,1.1,30.10,West,267,1.0,3.0,61,0.00,,,0.00,Wunderground v.1.15,2013-01-23 03:48:00,
2013-01-22 22:54:00,12.4,0.8,30.10,NW,311,2.0,3.0,59,0.00,,,0.00,Wunderground v.1.15,2013-01-23 03:54:00,
2013-01-22 22:59:00,12.4,0.4,30.10,NNE,33,1.0,2.0,58,0.00,,,0.00,Wunderground v.1.15,2013-01-23 03:59:00,
2013-01-22 23:04:00,12.3,0.3,30.10,SSW,198,1.0,3.0,58,0.00,,,0.00,Wunderground v.1.15,2013-01-23 04:04:00,
2013-01-22 23:10:00,12.3,-0.1,30.10,NNW,330,1.0,2.0,57,0.00,,,0.00,Wunderground v.1.15,2013-01-23 04:10:00,
2013-01-22 23:15:00,12.4,0.0,30.10,NE,41,1.0,3.0,57,0.00,,,0.00,Wunderground v.1.15,2013-01-23 04:15:00,
2013-01-22 23:20:00,12.5,-0.2,30.10,WNW,286,2.0,4.0,56,0.00,,,0.00,Wunderground v.1.15,2013-01-23 04:20:00,
2013-01-22 23:25:00,12.7,-0.8,30.10,NNE,17,2.0,7.0,54,0.00,,,0.00,Wunderground v.1.15,2013-01-23 04:25:00,
2013-01-22 23:30:00,12.7,-0.8,30.10,NNW,335,2.0,2.0,54,0.00,,,0.00,Wunderground v.1.15,2013-01-23 04:30:00,
2013-01-22 23:35:00,12.5,-1.0,30.10,NNE,30,1.0,2.0,54,0.00,,,0.00,Wunderground v.1.15,2013-01-23 04:35:00,
2013-01-22 23:40:00,12.4,-1.5,30.10,NNE,27,1.0,1.0,53,0.00,,,0.00,Wunderground v.1.15,2013-01-23 04:40:00,
2013-01-22 23:46:00,12.4,-1.5,30.10,NW,307,1.0,2.0,53,0.00,,,0.00,Wunderground v.1.15,2013-01-23 04:46:00,
2013-01-22 23:52:00,12.1,-1.4,30.10,North,350,1.0,2.0,54,0.00,,,0.00,Wunderground v.1.15,2013-01-23 04:52:00,
2013-01-22 23:57:00,12.1,-1.4,30.10,NW,318,1.0,6.0,54,0.00,,,0.00,Wunderground v.1.15,2013-01-23 04:57:00,